Regional Weather Roundup
Issued by NWS

Home | Current Version | Previous Version | Graphics & Text | Print | Product List | Glossary On
Versions: 1 2 3 4 5 6 7 8 9 10 11 12 13 14 15 16 17 18 19 20 21 22 23 24 25 26 27 28 29 30 31 32 33 34 35 36 37 38 39 40 41 42 43 44 45 46 47 48 49 50
919
ASUS45 KCYS 280110
RWRWY

WYOMING REGIONAL WEATHER ROUNDUP
NATIONAL WEATHER SERVICE CHEYENNE WY
700 PM MDT WED JUL 27 2016

NOTE:  "FAIR" INDICATES FEW OR NO CLOUDS BELOW 12,000 FEET
WITH NO SIGNIFICANT WEATHER AND/OR OBSTRUCTIONS TO VISIBILITY.

WYZ001-280200-
YELLOWSTONE NATIONAL PARK

CITY           SKY/WX    TMP DP  RH WIND       PRES   REMARKS
LK YELLOWSTONE   N/A     59  52  77 NW5       30.38F
W YELLOWSTONE  NOT AVBL

$$
WYZ002>013-054>058-071-098>099-280200-
NORTHERN WYOMING

CITY           SKY/WX    TMP DP  RH WIND       PRES   REMARKS
JACKSON        SUNNY     84  27  12 SW13      30.22F
CODY           FAIR      81  43  26 N10G20    30.14F
GREYBULL       FAIR      92  41  17 NW14      30.02F
WORLAND        FAIR      90  38  16 N5        30.04F
SHERIDAN       FAIR      87  45  23 NE9       30.09S
BUFFALO        FAIR      84  48  28 N9        30.16F
GILLETTE       FAIR      81  53  37 NE9       30.12F
HULETT         FAIR      77  54  44 E10       30.15F
NEWCASTLE      LGT RAIN  79  50  36 SE13G23   30.11R

$$
WYZ014>020-022>026-101>103-280200-
CENTRAL WYOMING

CITY           SKY/WX    TMP DP  RH WIND       PRES   REMARKS
BIG PINEY      FAIR      85  24  11 NW15      30.27S
PINEDALE       FAIR      82  28  14 NW14      30.28S
DUBOIS         FAIR      79  25  13 NW12G22   30.26S
LANDER         FAIR      88  40  18 NE8       30.10F
RIVERTON       FAIR      87  33  14 NE10      30.12S
CASPER         FAIR      88  37  16 E5        30.12F
DOUGLAS          N/A    N/A N/A N/A MISG      30.11S

$$
WYZ021-027>030-104>119-280200-
SOUTHERN WYOMING

CITY           SKY/WX    TMP DP  RH WIND       PRES   REMARKS
EVANSTON       FAIR      85  20   9 NW8       30.30F
KEMMERER         N/A    N/A N/A N/A NW13      30.31S
FORT BRIDGER   CLEAR     86  19   8 NW12G20   30.31F
ROCK SPRINGS   FAIR      88  14   6 W17       30.22F
DIXON          FAIR      90  17   7 W6        30.23F
RAWLINS        FAIR      86  27  11 N12       30.24S
SARATOGA       FAIR      82  32  16 NW7       30.26F
LARAMIE        FAIR      83  22  10 NW12G21   30.26S
CHEYENNE       FAIR      77  55  46 SE7       30.21R
TORRINGTON     FAIR      80  53  39 E15       30.09S

$$




USA.gov is the U.S. government's official web portal to all federal, state and local government web resources and services.